This is the latest recevied weather packets stored in our database for station/object W0SS-13. If no packets are shown the sender has not sent any weather packets the latest 10 day(s).
| Time | Temp. | Humidity | Pressure | Rain* | Wind** | Luminosity | Snow |
|---|---|---|---|---|---|---|---|
| 1778092896 | 13.33° C | 39% | 1020.1 hPa | 0 mm | - | 821 W/m² | - |
| 1778092592 | 12.78° C | 43% | 1020.1 hPa | 0 mm | - | 823 W/m² | - |
| 1778092288 | 13.33° C | 39% | 1020 hPa | 0 mm | - | 826 W/m² | - |
| 1778091986 | 13.33° C | 46% | 1020.3 hPa | 0 mm | - | 828 W/m² | - |
| 1778091682 | 13.33° C | 43% | 1020.3 hPa | 0 mm | - | 877 W/m² | - |
| 1778091380 | 13.33° C | 44% | 1020 hPa | 0 mm | - | 865 W/m² | - |
| 1778091077 | 13.33° C | 46% | 1020.2 hPa | 0 mm | - | 477 W/m² | - |
| 1778090774 | 12.78° C | 45% | 1020.2 hPa | 0 mm | - | 435 W/m² | - |
| 1778090471 | 12.78° C | 42% | 1020.3 hPa | 0 mm | - | 635 W/m² | - |
| 1778090167 | 12.78° C | 43% | 1020.3 hPa | 0 mm | - | 337 W/m² | - |
| 1778089863 | 12.78° C | 41% | 1020.4 hPa | 0 mm | - | 293 W/m² | - |
| 1778089562 | 12.78° C | 43% | 1020.4 hPa | 0 mm | - | 309 W/m² | - |
| 1778089258 | 12.78° C | 45% | 1020.4 hPa | 0 mm | - | 306 W/m² | - |
| 1778088956 | 12.78° C | 40% | 1020.1 hPa | 0 mm | - | 322 W/m² | - |
| 1778088652 | 12.78° C | 42% | 1020.4 hPa | 0 mm | - | 336 W/m² | - |
| 1778088350 | 12.78° C | 44% | 1020.4 hPa | 0 mm | - | 357 W/m² | - |
| 1778088046 | 12.78° C | 46% | 1020.5 hPa | 0 mm | - | 360 W/m² | - |
| 1778087743 | 12.78° C | 45% | 1020.4 hPa | 0 mm | - | 407 W/m² | - |
| 1778087441 | 13.33° C | 39% | 1020.5 hPa | 0 mm | - | 456 W/m² | - |
| 1778087138 | 13.33° C | 42% | 1020.5 hPa | 0 mm | - | 740 W/m² | - |
| 1778086830 | 13.33° C | 41% | 1020.5 hPa | 0 mm | - | 671 W/m² | - |
| 1778086528 | 13.33° C | 42% | 1020.5 hPa | 0 mm | - | 976 W/m² | - |
| 1778086224 | 12.78° C | 44% | 1020.3 hPa | 0 mm | - | 955 W/m² | - |
| 1778085921 | 12.78° C | 40% | 1020.2 hPa | 0 mm | - | 651 W/m² | - |
| 1778085618 | 12.78° C | 43% | 1020.4 hPa | 0 mm | - | 455 W/m² | - |
* Rain latest hour (hover to see other rain measurements)
** Current wind speed in m/s (hover to see current wind gust speed)